CFI700 ZGHA-ZGHA

Flight info

Callsign CFI700
Flight time 0h 8m
Altitude 2000
Route LOCAL
Aircraft C700/M-SBDGHM1RWXY/LB2

Departure

Time 2026-05-07 16:24
Airport Changsha Huanghua International Airport (ZGHA)

Arrival

Time 2026-05-07 16:33
Airport Changsha Huanghua International Airport (ZGHA)
Time Latitude Longitude Altitude Speed Heading
2026-05-07 15:04 28.20667 113.21577 208 ft 0 kts 266°
2026-05-07 15:18 28.20666 113.21562 214 ft 6 kts 267°
2026-05-07 15:18 28.20694 113.21508 212 ft 13 kts 358°
2026-05-07 15:19 28.20810 113.21510 208 ft 21 kts 359°
2026-05-07 15:19 28.20907 113.21573 212 ft 16 kts 36°
2026-05-07 15:19 28.21093 113.21565 208 ft 25 kts 356°
2026-05-07 15:19 28.21287 113.21553 208 ft 29 kts 357°
2026-05-07 15:20 28.21494 113.21540 208 ft 30 kts 357°
2026-05-07 15:20 28.21625 113.21587 208 ft 30 kts 41°
2026-05-07 15:20 28.21690 113.21775 208 ft 25 kts 88°
2026-05-07 15:20 28.21700 113.21982 208 ft 27 kts 90°
2026-05-07 15:21 28.21710 113.22204 208 ft 29 kts 87°
2026-05-07 15:21 28.21682 113.22412 211 ft 26 kts 126°
2026-05-07 15:21 28.21517 113.22499 208 ft 28 kts 177°
2026-05-07 15:21 28.21316 113.22511 208 ft 29 kts 174°
2026-05-07 15:22 28.21119 113.22523 213 ft 26 kts 176°
2026-05-07 15:22 28.20935 113.22534 208 ft 28 kts 177°
2026-05-07 15:22 28.20742 113.22546 212 ft 25 kts 176°
2026-05-07 15:22 28.20563 113.22558 213 ft 27 kts 176°
2026-05-07 15:23 28.20367 113.22569 208 ft 29 kts 176°
2026-05-07 15:23 28.20177 113.22582 208 ft 26 kts 177°
2026-05-07 15:23 28.19990 113.22593 208 ft 28 kts 177°
2026-05-07 15:23 28.19795 113.22605 208 ft 25 kts 176°
2026-05-07 15:24 28.19613 113.22616 208 ft 20 kts 176°
2026-05-07 15:24 28.19470 113.22625 212 ft 22 kts 177°
2026-05-07 15:24 28.19307 113.22634 212 ft 25 kts 177°
2026-05-07 15:24 28.19126 113.22646 208 ft 27 kts 177°
2026-05-07 15:25 28.18929 113.22659 212 ft 30 kts 176°
2026-05-07 15:25 28.18778 113.22667 208 ft 21 kts 177°
2026-05-07 15:25 28.18622 113.22675 208 ft 24 kts 177°
2026-05-07 15:25 28.18448 113.22688 208 ft 26 kts 176°
2026-05-07 15:26 28.18259 113.22699 208 ft 28 kts 176°
2026-05-07 15:26 28.18056 113.22712 208 ft 30 kts 177°
2026-05-07 15:26 28.17883 113.22722 214 ft 25 kts 177°
2026-05-07 15:26 28.17698 113.22733 213 ft 28 kts 178°
2026-05-07 15:27 28.17502 113.22746 208 ft 26 kts 176°
2026-05-07 15:27 28.17315 113.22763 208 ft 28 kts 172°
2026-05-07 15:27 28.17117 113.22802 213 ft 25 kts 168°
2026-05-07 15:27 28.16936 113.22844 207 ft 28 kts 168°
2026-05-07 15:28 28.16771 113.22883 211 ft 17 kts 161°
2026-05-07 15:28 28.16755 113.22976 207 ft 14 kts 86°
2026-05-07 15:28 28.16762 113.23098 207 ft 17 kts 85°
2026-05-07 15:28 28.16769 113.23242 207 ft 20 kts 86°
2026-05-07 15:29 28.16777 113.23417 207 ft 24 kts 87°
2026-05-07 15:29 28.16788 113.23619 207 ft 27 kts 89°
2026-05-07 15:29 28.16798 113.23847 207 ft 31 kts 86°
2026-05-07 15:29 28.16808 113.24052 207 ft 27 kts 87°
2026-05-07 15:30 28.16818 113.24270 208 ft 25 kts 88°
2026-05-07 15:30 28.16871 113.24349 209 ft 13 kts 354°
2026-05-07 15:30 28.16973 113.24342 214 ft 17 kts 356°
2026-05-07 15:30 28.17103 113.24332 213 ft 21 kts 356°
2026-05-07 15:31 28.17256 113.24324 208 ft 24 kts 357°
2026-05-07 15:31 28.17433 113.24314 208 ft 27 kts 357°
2026-05-07 15:31 28.17630 113.24302 207 ft 26 kts 356°
2026-05-07 15:31 28.17820 113.24290 208 ft 29 kts 356°
2026-05-07 15:32 28.18027 113.24278 212 ft 27 kts 356°
2026-05-07 15:32 28.18202 113.24267 213 ft 26 kts 356°
2026-05-07 15:32 28.18395 113.24254 212 ft 29 kts 356°
2026-05-07 15:32 28.18604 113.24242 212 ft 31 kts 356°
2026-05-07 15:33 28.18828 113.24227 208 ft 27 kts 358°
2026-05-07 15:33 28.19028 113.24214 208 ft 30 kts 355°
2026-05-07 15:33 28.19237 113.24203 213 ft 28 kts 357°
2026-05-07 15:33 28.19440 113.24191 212 ft 28 kts 357°
2026-05-07 15:34 28.19642 113.24178 208 ft 30 kts 356°
2026-05-07 15:34 28.19832 113.24167 212 ft 27 kts 356°
2026-05-07 15:34 28.20008 113.24156 211 ft 17 kts 356°
2026-05-07 15:34 28.20025 113.24080 216 ft 14 kts 217°
2026-05-07 15:35 28.19914 113.24084 208 ft 18 kts 176°
2026-05-07 15:35 28.19772 113.24092 211 ft 23 kts 176°
2026-05-07 15:35 28.19601 113.24103 208 ft 27 kts 177°
2026-05-07 15:35 28.19403 113.24115 211 ft 30 kts 177°
2026-05-07 15:36 28.19205 113.24127 212 ft 30 kts 177°
2026-05-07 15:36 28.19011 113.24139 212 ft 28 kts 177°
2026-05-07 15:36 28.18805 113.24152 214 ft 27 kts 177°
2026-05-07 15:36 28.18608 113.24164 208 ft 30 kts 177°
2026-05-07 15:37 28.18411 113.24175 211 ft 24 kts 176°
2026-05-07 15:37 28.18228 113.24187 208 ft 28 kts 178°
2026-05-07 15:37 28.18036 113.24199 213 ft 27 kts 177°
2026-05-07 15:37 28.17840 113.24211 207 ft 30 kts 177°
2026-05-07 15:38 28.17634 113.24223 207 ft 30 kts 176°
2026-05-07 15:38 28.17456 113.24234 211 ft 27 kts 176°
2026-05-07 15:38 28.17262 113.24247 208 ft 30 kts 177°
2026-05-07 15:38 28.17058 113.24260 208 ft 29 kts 176°
2026-05-07 15:39 28.16886 113.24265 213 ft 11 kts 215°
2026-05-07 15:39 28.16886 113.24224 208 ft 7 kts 265°
2026-05-07 15:39 28.16919 113.24191 215 ft 9 kts 357°
2026-05-07 15:39 28.16996 113.24186 208 ft 13 kts 356°
2026-05-07 15:40 28.17102 113.24179 211 ft 17 kts 356°
2026-05-07 15:40 28.17234 113.24171 208 ft 21 kts 356°
2026-05-07 15:40 28.17390 113.24162 212 ft 24 kts 356°
2026-05-07 15:40 28.17567 113.24151 212 ft 27 kts 356°
2026-05-07 15:41 28.17763 113.24140 207 ft 30 kts 356°
2026-05-07 15:41 28.17967 113.24127 207 ft 30 kts 356°
2026-05-07 15:41 28.18020 113.24063 211 ft 15 kts 240°
2026-05-07 15:41 28.17966 113.23947 213 ft 19 kts 242°
2026-05-07 15:42 28.17896 113.23849 211 ft 13 kts 177°
2026-05-07 15:42 28.17804 113.23901 207 ft 17 kts 152°
2026-05-07 15:42 28.17686 113.23974 207 ft 21 kts 151°
2026-05-07 15:42 28.17635 113.24077 207 ft 15 kts 84°
2026-05-07 15:43 28.17642 113.24213 207 ft 19 kts 85°
2026-05-07 15:43 28.17680 113.24300 211 ft 13 kts 356°
2026-05-07 15:43 28.17710 113.24209 207 ft 16 kts 266°
2026-05-07 15:43 28.17750 113.24140 216 ft 11 kts 357°
2026-05-07 15:44 28.17842 113.24134 207 ft 15 kts 356°
2026-05-07 15:44 28.17964 113.24125 211 ft 19 kts 356°
2026-05-07 15:44 28.18106 113.24118 210 ft 22 kts 357°
2026-05-07 15:44 28.18270 113.24107 208 ft 19 kts 355°
2026-05-07 15:45 28.18345 113.24065 212 ft 13 kts 266°
2026-05-07 15:45 28.18340 113.23948 207 ft 17 kts 266°
2026-05-07 15:45 28.18332 113.23798 207 ft 21 kts 267°
2026-05-07 15:45 28.18366 113.23723 207 ft 7 kts 356°
2026-05-07 15:46 28.18523 113.23713 207 ft 16 kts 358°
2026-05-07 15:46 28.18644 113.23705 210 ft 19 kts 357°
2026-05-07 15:46 28.18790 113.23696 213 ft 23 kts 357°
2026-05-07 15:47 28.18955 113.23686 207 ft 19 kts 354°
2026-05-07 15:47 28.18982 113.23606 207 ft 13 kts 267°
2026-05-07 15:47 28.18978 113.23483 207 ft 18 kts 268°
2026-05-07 15:47 28.18970 113.23330 207 ft 21 kts 268°
2026-05-07 15:48 28.18963 113.23146 207 ft 25 kts 270°
2026-05-07 15:48 28.18951 113.22937 207 ft 28 kts 267°
2026-05-07 15:48 28.18942 113.22748 208 ft 13 kts 265°
2026-05-07 15:48 28.18936 113.22627 208 ft 17 kts 267°
2026-05-07 15:49 28.18883 113.22565 208 ft 14 kts 153°
2026-05-07 15:49 28.18870 113.22679 208 ft 17 kts 87°
2026-05-07 15:49 28.18878 113.22834 211 ft 22 kts 86°
2026-05-07 15:49 28.18886 113.23020 207 ft 26 kts 87°
2026-05-07 15:50 28.18849 113.23122 213 ft 13 kts 177°
2026-05-07 15:50 28.18746 113.23128 213 ft 17 kts 177°
2026-05-07 15:50 28.18613 113.23136 207 ft 21 kts 176°
2026-05-07 15:50 28.18449 113.23146 207 ft 25 kts 177°
2026-05-07 15:51 28.18276 113.23157 207 ft 15 kts 178°
2026-05-07 15:51 28.18236 113.23083 207 ft 13 kts 267°
2026-05-07 15:51 28.18230 113.22964 207 ft 17 kts 267°
2026-05-07 15:51 28.18222 113.22815 208 ft 16 kts 253°
2026-05-07 15:52 28.18111 113.22793 213 ft 19 kts 177°
2026-05-07 15:52 28.17970 113.22804 211 ft 9 kts 153°
2026-05-07 15:52 28.17953 113.22885 207 ft 13 kts 100°
2026-05-07 15:52 28.17914 113.22994 209 ft 17 kts 112°
2026-05-07 15:53 28.17857 113.23084 207 ft 11 kts 178°
2026-05-07 15:53 28.17770 113.23047 212 ft 16 kts 201°
2026-05-07 15:53 28.17656 113.22995 212 ft 20 kts 201°
2026-05-07 15:53 28.17517 113.22931 209 ft 24 kts 200°
2026-05-07 15:54 28.17368 113.22957 207 ft 18 kts 127°
2026-05-07 15:54 28.17271 113.23015 211 ft 18 kts 177°
2026-05-07 15:54 28.17131 113.23023 212 ft 22 kts 176°
2026-05-07 15:54 28.16963 113.23034 212 ft 26 kts 176°
2026-05-07 15:55 28.16829 113.23077 211 ft 17 kts 97°
2026-05-07 15:55 28.16836 113.23226 207 ft 21 kts 86°
2026-05-07 15:55 28.16845 113.23406 207 ft 25 kts 86°
2026-05-07 15:55 28.16855 113.23614 207 ft 28 kts 86°
2026-05-07 15:56 28.16865 113.23826 207 ft 23 kts 86°
2026-05-07 15:56 28.16873 113.23982 207 ft 22 kts 87°
2026-05-07 15:56 28.16881 113.24157 208 ft 16 kts 86°
2026-05-07 15:56 28.16888 113.24297 208 ft 13 kts 86°
2026-05-07 15:57 28.16856 113.24349 214 ft 6 kts 176°
2026-05-07 15:57 28.16824 113.24386 210 ft 9 kts 92°
2026-05-07 15:57 28.16828 113.24463 212 ft 11 kts 87°
2026-05-07 15:57 28.16871 113.24531 212 ft 13 kts 12°
2026-05-07 15:58 28.16974 113.24526 218 ft 17 kts 356°
2026-05-07 15:58 28.17101 113.24518 213 ft 20 kts 356°
2026-05-07 15:58 28.17253 113.24509 211 ft 24 kts 356°
2026-05-07 15:58 28.17433 113.24498 210 ft 27 kts 358°
2026-05-07 15:59 28.17634 113.24485 209 ft 30 kts 356°
2026-05-07 15:59 28.17855 113.24471 213 ft 33 kts
2026-05-07 15:59 28.18058 113.24460 211 ft 29 kts 357°
2026-05-07 15:59 28.18267 113.24447 212 ft 31 kts 358°
2026-05-07 16:00 28.18487 113.24432 213 ft 33 kts 356°
2026-05-07 16:00 28.18722 113.24416 213 ft 35 kts 356°
2026-05-07 16:00 28.18959 113.24403 211 ft 34 kts 357°
2026-05-07 16:00 28.19184 113.24368 209 ft 27 kts 341°
2026-05-07 16:01 28.19344 113.24273 208 ft 24 kts 331°
2026-05-07 16:01 28.19501 113.24189 212 ft 26 kts 351°
2026-05-07 16:01 28.19662 113.24176 214 ft 23 kts 356°
2026-05-07 16:01 28.19832 113.24167 209 ft 26 kts 355°
2026-05-07 16:02 28.20005 113.24156 211 ft 11 kts 357°
2026-05-07 16:02 28.20047 113.24217 211 ft 12 kts 86°
2026-05-07 16:02 28.20045 113.24317 214 ft 13 kts 113°
2026-05-07 16:02 28.19950 113.24342 214 ft 17 kts 177°
2026-05-07 16:03 28.19816 113.24349 212 ft 22 kts 177°
2026-05-07 16:03 28.19644 113.24360 210 ft 27 kts 176°
2026-05-07 16:03 28.19445 113.24373 209 ft 31 kts 176°
2026-05-07 16:03 28.19238 113.24387 209 ft 30 kts 176°
2026-05-07 16:04 28.19024 113.24398 210 ft 32 kts 178°
2026-05-07 16:04 28.18793 113.24413 212 ft 35 kts 175°
2026-05-07 16:04 28.18569 113.24427 213 ft 32 kts 176°
2026-05-07 16:04 28.18335 113.24442 213 ft 35 kts 175°
2026-05-07 16:05 28.18080 113.24441 211 ft 33 kts 189°
2026-05-07 16:05 28.17899 113.24366 214 ft 30 kts 202°
2026-05-07 16:05 28.17723 113.24296 208 ft 29 kts 180°
2026-05-07 16:05 28.17538 113.24307 210 ft 28 kts 176°
2026-05-07 16:06 28.17334 113.24320 208 ft 25 kts 176°
2026-05-07 16:06 28.17215 113.24328 208 ft 27 kts 176°
2026-05-07 16:06 28.17026 113.24339 209 ft 23 kts 176°
2026-05-07 16:06 28.16893 113.24329 210 ft 13 kts 237°
2026-05-07 16:07 28.16917 113.24269 208 ft 9 kts 347°
2026-05-07 16:07 28.16991 113.24277 216 ft 12 kts 44°
2026-05-07 16:07 28.17004 113.24378 216 ft 14 kts 87°
2026-05-07 16:07 28.17042 113.24520 213 ft 14 kts 23°
2026-05-07 16:08 28.17109 113.24518 213 ft 15 kts 357°
2026-05-07 16:08 28.17231 113.24510 212 ft 20 kts 356°
2026-05-07 16:08 28.17387 113.24501 213 ft 24 kts 357°
2026-05-07 16:08 28.17567 113.24489 210 ft 28 kts 356°
2026-05-07 16:09 28.17770 113.24477 213 ft 31 kts 357°
2026-05-07 16:09 28.17990 113.24463 212 ft 33 kts 357°
2026-05-07 16:09 28.18222 113.24449 212 ft 34 kts 358°
2026-05-07 16:09 28.18462 113.24411 213 ft 35 kts 339°
2026-05-07 16:10 28.18624 113.24317 211 ft 17 kts 327°
2026-05-07 16:10 28.18645 113.24206 211 ft 18 kts 268°
2026-05-07 16:10 28.18708 113.24158 208 ft 14 kts 357°
2026-05-07 16:10 28.18818 113.24151 213 ft 18 kts 356°
2026-05-07 16:11 28.18943 113.24144 214 ft 14 kts 358°
2026-05-07 16:11 28.19012 113.24191 212 ft 8 kts 72°
2026-05-07 16:11 28.19066 113.24213 208 ft 11 kts 357°
2026-05-07 16:11 28.19156 113.24208 208 ft 15 kts 356°
2026-05-07 16:12 28.19277 113.24200 208 ft 19 kts 358°
2026-05-07 16:12 28.19423 113.24191 213 ft 23 kts 357°
2026-05-07 16:12 28.19560 113.24194 210 ft 11 kts 34°
2026-05-07 16:12 28.19576 113.24286 210 ft 14 kts 86°
2026-05-07 16:13 28.19523 113.24369 216 ft 17 kts 175°
2026-05-07 16:13 28.19388 113.24377 209 ft 22 kts 176°
2026-05-07 16:13 28.19221 113.24388 213 ft 26 kts 177°
2026-05-07 16:13 28.19029 113.24397 210 ft 29 kts 178°
2026-05-07 16:14 28.18817 113.24412 212 ft 32 kts 175°
2026-05-07 16:14 28.18594 113.24424 213 ft 33 kts 178°
2026-05-07 16:14 28.18353 113.24440 213 ft 36 kts 178°
2026-05-07 16:14 28.18089 113.24456 211 ft 37 kts 175°
2026-05-07 16:15 28.17881 113.24470 214 ft 31 kts 176°
2026-05-07 16:15 28.17679 113.24453 217 ft 27 kts 194°
2026-05-07 16:15 28.17522 113.24380 217 ft 23 kts 204°
2026-05-07 16:15 28.17397 113.24308 213 ft 5 kts 253°
2026-05-07 16:16 28.17396 113.24273 209 ft 7 kts 267°
2026-05-07 16:16 28.17393 113.24204 208 ft 11 kts 265°
2026-05-07 16:16 28.17389 113.24101 215 ft 15 kts 269°
2026-05-07 16:16 28.17368 113.23972 212 ft 17 kts 218°
2026-05-07 16:17 28.17256 113.23972 211 ft 8 kts 175°
2026-05-07 16:17 28.17198 113.23976 207 ft 11 kts 176°
2026-05-07 16:17 28.17108 113.23982 211 ft 15 kts 176°
2026-05-07 16:17 28.16986 113.23989 207 ft 20 kts 178°
2026-05-07 16:18 28.16835 113.23998 207 ft 24 kts 178°
2026-05-07 16:18 28.16738 113.24033 212 ft 12 kts 109°
2026-05-07 16:18 28.16741 113.24096 207 ft 0 kts 86°
2026-05-07 16:22 28.16742 113.24116 207 ft 7 kts 86°
2026-05-07 16:22 28.16747 113.24208 208 ft 16 kts 89°
2026-05-07 16:22 28.16808 113.24282 208 ft 8 kts 41°
2026-05-07 16:23 28.16823 113.24366 209 ft 15 kts 86°
2026-05-07 16:23 28.16828 113.24460 212 ft 0 kts 86°
2026-05-07 16:23 28.16828 113.24463 212 ft 2 kts 86°
2026-05-07 16:23 28.16832 113.24510 217 ft 10 kts 70°
2026-05-07 16:24 28.16883 113.24532 212 ft 1 kts 357°
2026-05-07 16:24 28.17066 113.24520 213 ft 70 kts 356°
2026-05-07 16:24 28.17871 113.24472 245 ft 156 kts 357°
2026-05-07 16:24 28.19106 113.24399 919 ft 194 kts 356°
2026-05-07 16:25 28.20472 113.24297 1020 ft 197 kts 356°
2026-05-07 16:25 28.21816 113.24461 1016 ft 197 kts 24°
2026-05-07 16:25 28.22763 113.25564 1020 ft 202 kts 65°
2026-05-07 16:25 28.22991 113.27139 1019 ft 203 kts 85°
2026-05-07 16:26 28.23052 113.28735 1022 ft 203 kts 85°
2026-05-07 16:26 28.23014 113.30337 1011 ft 205 kts 103°
2026-05-07 16:26 28.22207 113.31639 1002 ft 209 kts 144°
2026-05-07 16:26 28.20828 113.32118 1009 ft 211 kts 174°
2026-05-07 16:27 28.19357 113.32249 1021 ft 213 kts 175°
2026-05-07 16:27 28.17874 113.32379 1020 ft 213 kts 175°
2026-05-07 16:27 28.16406 113.32504 1017 ft 210 kts 175°
2026-05-07 16:27 28.14950 113.32625 1019 ft 211 kts 176°
2026-05-07 16:28 28.13479 113.32750 1017 ft 211 kts 175°
2026-05-07 16:28 28.12017 113.32872 1019 ft 210 kts 176°
2026-05-07 16:28 28.10569 113.32984 1014 ft 206 kts 176°
2026-05-07 16:28 28.09188 113.33106 1006 ft 193 kts 175°
2026-05-07 16:29 28.07869 113.33184 989 ft 188 kts 185°
2026-05-07 16:29 28.06734 113.32565 992 ft 185 kts 231°
2026-05-07 16:29 28.06297 113.31228 996 ft 184 kts 265°
2026-05-07 16:29 28.06170 113.29829 1001 ft 172 kts 265°
2026-05-07 16:30 28.06037 113.28566 1007 ft 159 kts 269°
2026-05-07 16:30 28.06381 113.27419 993 ft 157 kts 316°
2026-05-07 16:30 28.07269 113.26694 1011 ft 160 kts 327°
2026-05-07 16:30 28.08148 113.25962 1014 ft 153 kts 325°
2026-05-07 16:31 28.09020 113.25275 1003 ft 154 kts 334°
2026-05-07 16:31 28.10078 113.25049 1006 ft 158 kts 356°
2026-05-07 16:31 28.11124 113.24914 1020 ft 144 kts 353°
2026-05-07 16:31 28.12137 113.24834 1018 ft 141 kts 355°
2026-05-07 16:32 28.13086 113.24761 1003 ft 136 kts 357°
2026-05-07 16:32 28.14040 113.24719 786 ft 135 kts 356°
2026-05-07 16:32 28.14963 113.24642 587 ft 130 kts 356°
2026-05-07 16:32 28.15820 113.24608 405 ft 117 kts 356°
2026-05-07 16:33 28.16618 113.24553 273 ft 115 kts 356°
2026-05-07 16:33 28.17363 113.24507 215 ft 90 kts 352°
2026-05-07 16:33 28.17799 113.24474 213 ft 45 kts 359°
2026-05-07 16:33 28.18075 113.24458 211 ft 36 kts 357°
2026-05-07 16:34 28.18300 113.24444 212 ft 30 kts 357°
2026-05-07 16:34 28.18504 113.24430 213 ft 29 kts 356°
2026-05-07 16:34 28.18703 113.24419 218 ft 28 kts 358°
2026-05-07 16:34 28.18887 113.24361 213 ft 28 kts 321°
2026-05-07 16:35 28.19011 113.24259 211 ft 16 kts 287°
2026-05-07 16:35 28.19007 113.24117 208 ft 19 kts 267°
2026-05-07 16:35 28.19000 113.23956 207 ft 22 kts 267°
2026-05-07 16:35 28.18991 113.23781 212 ft 23 kts 268°
2026-05-07 16:36 28.18983 113.23597 207 ft 24 kts 268°
2026-05-07 16:36 28.18972 113.23398 209 ft 25 kts 267°
2026-05-07 16:36 28.18964 113.23197 207 ft 26 kts 268°
2026-05-07 16:36 28.18952 113.22986 207 ft 27 kts 269°
2026-05-07 16:37 28.18943 113.22773 208 ft 27 kts 266°
2026-05-07 16:37 28.18929 113.22579 215 ft 12 kts 238°
2026-05-07 16:37 28.18845 113.22565 208 ft 14 kts 174°
2026-05-07 16:37 28.18739 113.22568 209 ft 17 kts 176°
2026-05-07 16:38 28.18612 113.22577 209 ft 20 kts 176°
2026-05-07 16:38 28.18465 113.22586 209 ft 23 kts 175°
2026-05-07 16:38 28.18297 113.22597 213 ft 26 kts 177°
2026-05-07 16:38 28.18109 113.22609 213 ft 28 kts 177°
2026-05-07 16:39 28.17903 113.22623 212 ft 31 kts 177°
2026-05-07 16:39 28.17679 113.22635 208 ft 33 kts 177°
2026-05-07 16:39 28.17442 113.22648 208 ft 30 kts 176°
2026-05-07 16:39 28.17265 113.22684 213 ft 26 kts 168°
2026-05-07 16:40 28.17081 113.22727 207 ft 28 kts 168°
2026-05-07 16:40 28.16923 113.22754 207 ft 6 kts 210°
2026-05-07 16:40 28.16906 113.22721 212 ft 5 kts 268°
2026-05-07 16:40 28.16904 113.22672 207 ft 8 kts 266°
2026-05-07 16:41 28.16901 113.22598 207 ft 11 kts 268°
2026-05-07 16:41 28.16896 113.22499 207 ft 14 kts 266°
2026-05-07 16:41 28.16890 113.22377 207 ft 17 kts 267°
2026-05-07 16:41 28.16882 113.22230 207 ft 20 kts 267°
2026-05-07 16:42 28.16874 113.22062 211 ft 23 kts 266°
2026-05-07 16:42 28.16865 113.21874 207 ft 18 kts 266°
2026-05-07 16:42 28.16898 113.21819 216 ft 9 kts 352°
2026-05-07 16:42 28.16969 113.21815 207 ft 12 kts 357°
2026-05-07 16:43 28.17065 113.21809 211 ft 15 kts 356°
2026-05-07 16:43 28.17182 113.21801 207 ft 18 kts 357°
2026-05-07 16:43 28.17317 113.21793 211 ft 21 kts 357°
2026-05-07 16:43 28.17472 113.21783 208 ft 23 kts 356°
2026-05-07 16:44 28.17643 113.21773 208 ft 26 kts 356°
2026-05-07 16:44 28.17727 113.21727 212 ft 11 kts 273°
2026-05-07 16:44 28.17750 113.21642 215 ft 13 kts 339°
2026-05-07 16:44 28.17818 113.21636 212 ft 10 kts 357°
2026-05-07 16:45 28.17829 113.21635 212 ft 0 kts 357°